Showing default

KOMPSAT 3, 38338

Orbit data source: Space-Track

KOMPSAT 3, 38338 is a payload satellite owned by KARI (KR) in SSO that was launched on Thu, 17 May 2012 UTC via an H-IIA 202 launch vehicle from the Tanegashima Space Center (TNSTA). Payload-class satellites include a variety of spacecraft equipped with specific instruments for various scientific and technological missions. These include communications satellites like Starlink; space stations such as the ISS; scientific satellites like the Hubble; Earth observation satellites from companies like Planet Labs, Umbra, and HawkEye 360; GPS; miniature CubeSats for education and research; and military/defense satellites.

Loading next visibility...
Identifier
38338, 2012-025B
Orbit
SSO
Country
Flag of KRKR / SKOR
Related business
Manufacturer
KARI
Mission
Operational Civil Imaging
Bus & Motor
KOMPSAT, Unknown motor
Mass
~800 kg wet, ~700 kg dry
Launch date (UTC)
2012-05-17 (14 years ago)
Launch vehicle
H-IIA 202
Launch site
Tanegashima Space Center (TNSTA)
Object type
Payload
Rocket body
Debris
Shape & HBR
Hex Cyl + 3 Pan, 3.5 m
Radar Cross Section
10.510 m², Large (>1 m²)

Expand to show TLE details & history
Last TLE update: 6 hours ago

TLE from 6 hours ago
0 KOMPSAT 3
1 38338U 12025B   26263.62783312  .00000246  00000-0  57977-4 0  9997
2 38338  98.1282 219.4929 0005554 161.4511 198.6894 14.62274680765295
Epoch: 2026-09-20T15:04Z
TLE epoch observation values (Epoch: 2026-09-20T15:04:04.781Z)
Latitude
-0.00003°
Longitude
-6.04631°
Altitude
692.547 km
Speed
7.508 km/s
True Right ascension
14h 37m 58s
True Declination
0° 00' 00"
Sunlit
Object was in daylight at epoch
Visualization orbit readout
Latitude
Unknown
Longitude
Unknown
Altitude
Unknown
Speed
Unknown
Apparent Right ascension
Unknown
Apparent Declination
Unknown
Sunlit
N/A
Visualization observer readout
Local Sidereal Time
13:49:13
Azimuth
Unknown
Elevation
Unknown
Doppler factor
Unknown
Orbital elements
Apogee altitude
686.835 km
Perigee altitude
678.992 km
Semi-major axis
7,061.051 km
Eccentricity
0.00056
Inclination
98.1282°
RAAN
219.4929°
Arg. of periapsis
161.4511°
True anomaly
198.66902°
Mean anomaly
198.6894°
Eccentric anomaly
198.67921°
Mean motion
3.65796 °/min
Orbital period
98.42 mins
BSTAR
0.000057977
Loading maneuver chart data...
Computing Atmospheric mass density...

Documentation

Showing up to 5 results
|